EW2353 Weather Reports


Display with metric or nautical units.
time (UTC)temp
F
wind
direction
speed
MPH
gust
MPH
rain 1hr
in
rain 24hr
in
rain mn
in
humidity
%
barometer
mb
20260904043836 74 235 0.0 0.0 0.00 0.00 0.00 95 1016.4
20260904043327 74 235 0.0 0.0 0.00 0.00 0.00 95 1016.4
20260904042820 74 235 0.0 0.0 0.00 0.00 0.00 95 1016.4
20260904042313 74 236 0.0 0.0 0.00 0.00 0.00 95 1016.3
20260904041826 74 235 0.0 0.0 0.00 0.00 0.00 95 1016.3
20260904041319 74 236 0.0 0.0 0.00 0.00 0.00 95 1016.3
20260904040812 74 236 0.0 0.0 0.00 0.00 0.00 95 1016.3
20260904040324 74 235 0.0 0.0 0.00 0.00 0.00 95 1016.2
20260904035817 74 236 0.0 0.0 0.00 0.00 0.00 95 1016.3
20260904035310 74 236 0.0 0.0 0.00 0.00 0.00 95 1016.2
20260904034823 74 236 0.0 0.0 0.00 0.00 0.00 94 1016.2
20260904034316 74 235 0.0 0.0 0.00 0.00 0.00 94 1016.2
20260904033828 75 235 0.0 0.0 0.00 0.00 0.00 94 1016.2
20260904033320 75 235 0.0 0.0 0.00 0.00 0.00 94 1016.2
20260904032816 75 235 0.0 0.0 0.00 0.00 0.00 94 1016.2
20260904032329 75 236 0.0 0.0 0.00 0.00 0.00 94 1016.2
20260904031822 75 235 0.0 0.0 0.00 0.00 0.00 94 1016.2
20260904031314 75 235 0.0 0.0 0.00 0.00 0.00 94 1016.3
20260904030827 75 235 0.0 0.0 0.00 0.00 0.00 94 1016.3
20260904030320 75 235 0.0 0.0 0.00 0.00 0.00 95 1016.3
20260904025812 75 236 0.0 0.0 0.00 0.00 0.00 95 1016.4
20260904025324 75 236 0.0 0.0 0.00 0.00 0.00 95 1016.3
20260904024822 75 236 0.0 0.0 0.00 0.00 0.00 95 1016.2
20260904024314 75 236 0.0 0.0 0.00 0.00 0.00 95 1016.3
20260904023847 75 236 0.0 0.0 0.00 0.00 0.00 96 1016.4
20260904023319 75 236 0.0 0.0 0.00 0.00 0.00 96 1016.4
20260904022832 75 236 0.0 0.0 0.00 0.00 0.00 96 1016.4
20260904022323 75 236 0.0 0.0 0.00 0.00 0.00 95 1016.3
20260904021816 75 236 0.0 0.0 0.00 0.00 0.00 95 1016.3
20260904021329 75 236 0.0 0.0 0.00 0.00 0.00 95 1016.3
20260904020822 75 236 0.0 0.0 0.00 0.00 0.00 94 1016.3
20260904020319 75 235 0.0 0.0 0.00 0.00 0.00 94 1016.3
20260904015812 75 235 0.0 0.0 0.00 0.00 0.00 94 1016.4
20260904015344 76 236 0.0 0.0 0.00 0.00 0.00 94 1016.4
20260904014816 76 236 0.0 0.0 0.00 0.00 0.00 94 1016.5
20260904014328 76 235 0.0 0.0 0.00 0.00 0.00 93 1016.5
20260904013821 76 236 0.0 0.0 0.00 0.00 0.00 93 1016.6
20260904013333 76 236 0.0 0.0 0.00 0.00 0.00 93 1016.5
20260904012825 77 235 0.0 0.0 0.00 0.00 0.00 93 1016.5
20260904012317 77 236 0.0 0.0 0.00 0.00 0.00 92 1016.5
20260904011835 77 236 0.0 0.0 0.00 0.00 0.00 92 1016.5
20260904011327 78 236 0.0 0.0 0.00 0.00 0.00 92 1016.4
20260904010820 78 236 0.0 0.0 0.00 0.00 0.00 92 1016.4
20260904010312 78 235 0.0 0.0 0.00 0.00 0.00 91 1016.4
20260904005825 78 236 0.0 0.0 0.00 0.00 0.00 90 1016.3
20260904005318 79 235 0.0 0.0 0.00 0.00 0.00 90 1016.2
20260904004811 79 236 0.0 0.0 0.00 0.00 0.00 89 1016.1
20260904004324 80 236 0.0 0.0 0.00 0.00 0.00 89 1016.1
20260904003837 80 236 0.0 0.0 0.00 0.00 0.00 88 1016.0
20260904003332 80 236 0.0 0.0 0.00 0.00 0.00 87 1015.9
20260904002823 81 235 0.0 0.0 0.00 0.00 0.00 87 1015.9
20260904002316 82 235 0.0 0.0 0.00 0.00 0.00 85 1015.9
20260904001829 83 236 0.0 0.0 0.00 0.00 0.00 84 1015.8
20260904001322 84 235 0.0 0.0 0.00 0.00 0.00 82 1015.8
20260904000815 84 235 0.0 0.0 0.00 0.00 0.00 82 1015.9
20260904000328 85 235 0.0 0.0 0.00 0.00 0.00 80 1015.8
20260903235820 87 235 0.0 0.0 0.00 0.00 0.00 78 1015.8
20260903235317 88 235 0.0 0.0 0.00 0.00 0.00 77 1015.8
20260903234810 90 235 0.0 0.0 0.00 0.00 0.00 74 1015.7
20260903234323 92 236 0.0 0.0 0.00 0.00 0.00 70 1015.8
20260903233816 93 236 0.0 0.0 0.00 0.00 0.00 68 1015.7
20260903233329 93 236 0.0 0.0 0.00 0.00 0.00 67 1015.7
20260903232821 93 235 0.0 0.0 0.00 0.00 0.00 65 1015.7
20260903232313 93 235 0.0 0.0 0.00 0.00 0.00 67 1015.6
20260903231826 93 235 0.0 0.0 0.00 0.00 0.00 67 1015.7
20260903231323 92 236 0.0 1.0 0.00 0.00 0.00 67 1015.6
20260903230815 92 235 0.0 1.0 0.00 0.00 0.00 67 1015.5
20260903230328 92 235 0.0 2.0 0.00 0.00 0.00 66 1015.5
20260903225841 92 235 1.0 2.0 0.00 0.00 0.00 64 1015.5
20260903225312 92 242 0.0 4.0 0.00 0.00 0.00 65 1015.6
20260903224825 92 252 1.0 4.0 0.00 0.00 0.00 63 1015.6
20260903224318 92 248 0.0 3.0 0.00 0.00 0.00 65 1015.6
20260903223831 92 159 1.0 5.0 0.00 0.00 0.00 65 1015.5
20260903223323 92 274 2.0 5.0 0.00 0.00 0.00 63 1015.5
20260903222836 92 244 3.0 6.0 0.00 0.00 0.00 63 1015.4
20260903222332 92 272 2.0 6.0 0.00 0.00 0.00 62 1015.4
20260903221824 92 266 3.0 5.0 0.00 0.00 0.00 61 1015.4
20260903221317 92 251 2.0 7.0 0.00 0.00 0.00 62 1015.3
20260903220829 92 248 3.0 8.0 0.00 0.00 0.00 62 1015.2
20260903220321 92 278 5.0 8.0 0.00 0.00 0.00 61 1015.2
20260903215814 92 279 4.0 9.0 0.00 0.00 0.00 62 1015.2
20260903215327 92 267 5.0 9.0 0.00 0.00 0.00 61 1015.1
20260903214820 92 219 3.0 9.0 0.00 0.00 0.00 62 1015.0
20260903214313 92 274 6.0 9.0 0.00 0.00 0.00 61 1015.0
20260903213846 92 230 4.0 7.0 0.00 0.00 0.00 63 1015.0
20260903213318 92 259 5.0 10.0 0.00 0.00 0.00 61 1015.0
20260903212831 92 249 5.0 10.0 0.00 0.00 0.00 62 1015.0
20260903212323 93 253 5.0 9.0 0.00 0.00 0.00 61 1015.0
20260903211815 93 260 5.0 9.0 0.00 0.00 0.00 60 1015.0
20260903211329 93 282 4.0 10.0 0.00 0.00 0.00 61 1015.1
20260903210842 93 251 7.0 10.0 0.00 0.00 0.00 59 1015.2
20260903210314 93 255 5.0 9.0 0.00 0.00 0.00 60 1015.1
20260903205826 93 239 5.0 8.0 0.00 0.00 0.00 59 1015.2
20260903205322 93 205 3.0 11.0 0.00 0.00 0.00 61 1015.2
20260903204815 93 259 6.0 11.0 0.00 0.00 0.00 60 1015.3
20260903204328 92 224 4.0 9.0 0.00 0.00 0.00 60 1015.3
20260903203821 93 267 5.0 9.0 0.00 0.00 0.00 59 1015.4
20260903203313 93 289 6.0 9.0 0.00 0.00 0.00 57 1015.4
20260903202826 93 266 5.0 10.0 0.00 0.00 0.00 59 1015.5
20260903202319 93 264 4.0 12.0 0.00 0.00 0.00 58 1015.6
20260903201812 93 260 6.0 12.0 0.00 0.00 0.00 57 1015.7
20260903201345 93 271 5.0 10.0 0.00 0.00 0.00 58 1015.8
20260903200821 93 282 4.0 9.0 0.00 0.00 0.00 60 1015.9
20260903200314 93 212 5.0 8.0 0.00 0.00 0.00 59 1015.9
20260903195827 93 247 2.0 11.0 0.00 0.00 0.00 60 1016.0
20260903195340 93 282 7.0 11.0 0.00 0.00 0.00 57 1016.1
20260903194811 93 210 4.0 11.0 0.00 0.00 0.00 60 1016.2
20260903194324 93 276 7.0 11.0 0.00 0.00 0.00 59 1016.2
20260903193817 93 229 4.0 10.0 0.00 0.00 0.00 59 1016.3
20260903193310 93 248 5.0 10.0 0.00 0.00 0.00 60 1016.4
20260903192842 93 214 5.0 10.0 0.00 0.00 0.00 61 1016.4
20260903192318 93 281 4.0 10.0 0.00 0.00 0.00 59 1016.5
20260903191811 93 258 4.0 10.0 0.00 0.00 0.00 61 1016.5
20260903191324 93 273 4.0 10.0 0.00 0.00 0.00 61 1016.6
20260903190817 93 216 2.0 10.0 0.00 0.00 0.00 62 1016.7
20260903190310 93 213 4.0 9.0 0.00 0.00 0.00 62 1016.6
20260903185843 93 187 4.0 12.0 0.00 0.00 0.00 60 1016.6
20260903185315 93 278 5.0 12.0 0.00 0.00 0.00 60 1016.6
20260903184827 93 250 6.0 11.0 0.00 0.00 0.00 61 1016.7
20260903184340 93 265 6.0 10.0 0.00 0.00 0.00 60 1016.7
20260903183816 93 261 5.0 9.0 0.00 0.00 0.00 61 1016.8
20260903183329 93 280 2.0 9.0 0.00 0.00 0.00 59 1016.8
20260903182822 93 236 5.0 12.0 0.00 0.00 0.00 61 1016.8
20260903182335 93 242 7.0 12.0 0.00 0.00 0.00 60 1016.8
20260903181827 93 240 5.0 11.0 0.00 0.00 0.00 61 1016.9
20260903181320 93 275 4.0 9.0 0.00 0.00 0.00 62 1016.8
20260903180813 92 260 6.0 10.0 0.00 0.00 0.00 60 1016.9
20260903180325 92 271 6.0 11.0 0.00 0.00 0.00 59 1016.9
20260903175839 92 286 5.0 11.0 0.00 0.00 0.00 59 1016.9
20260903175313 92 300 4.0 11.0 0.00 0.00 0.00 62 1016.9
20260903174826 92 237 4.0 11.0 0.00 0.00 0.00 62 1017.0
20260903174316 92 190 5.0 11.0 0.00 0.00 0.00 62 1017.0
20260903173828 92 252 5.0 9.0 0.00 0.00 0.00 60 1017.1
20260903173321 92 221 3.0 9.0 0.00 0.00 0.00 64 1017.2
20260903172814 92 256 5.0 8.0 0.00 0.00 0.00 65 1017.2
20260903172327 92 231 3.0 9.0 0.00 0.00 0.00 62 1017.2
20260903171820 92 285 4.0 9.0 0.00 0.00 0.00 64 1017.3
20260903171316 92 252 4.0 9.0 0.00 0.00 0.00 63 1017.3
20260903170830 92 250 5.0 10.0 0.00 0.00 0.00 61 1017.4
20260903170323 92 262 6.0 10.0 0.00 0.00 0.00 64 1017.4
20260903165835 92 272 6.0 9.0 0.00 0.00 0.00 64 1017.5
20260903165347 92 274 4.0 9.0 0.00 0.00 0.00 66 1017.5
20260903164819 92 253 4.0 7.0 0.00 0.00 0.00 65 1017.5
20260903164312 91 269 4.0 8.0 0.00 0.00 0.00 64 1017.6
20260903163824 91 266 4.0 11.0 0.00 0.00 0.00 65 1017.6
20260903163318 91 250 6.0 11.0 0.00 0.00 0.00 64 1017.7
20260903162835 91 257 5.0 8.0 0.00 0.00 0.00 63 1017.9
20260903161827 91 259 5.0 9.0 0.00 0.00 0.00 66 1017.7
20260903161320 90 245 3.0 7.0 0.00 0.00 0.00 67 1017.8
20260903160813 90 233 3.0 8.0 0.00 0.00 0.00 69 1017.9
20260903160326 90 255 5.0 8.0 0.00 0.00 0.00 68 1017.9
20260903155818 90 213 2.0 9.0 0.00 0.00 0.00 71 1017.8
20260903155311 90 248 5.0 9.0 0.00 0.00 0.00 69 1017.8
20260903154844 90 270 5.0 9.0 0.00 0.00 0.00 69 1017.9
20260903154315 90 266 4.0 9.0 0.00 0.00 0.00 69 1017.9
20260903153812 89 268 4.0 9.0 0.00 0.00 0.00 72 1017.8
20260903153345 89 265 4.0 9.0 0.00 0.00 0.00 69 1017.9
20260903152817 89 229 4.0 8.0 0.00 0.00 0.00 71 1017.8
20260903152330 89 256 2.0 8.0 0.00 0.00 0.00 72 1017.8
20260903151822 89 248 2.0 5.0 0.00 0.00 0.00 72 1017.8
20260903151315 88 263 2.0 5.0 0.00 0.00 0.00 73 1017.8
20260903150848 88 262 4.0 5.0 0.00 0.00 0.00 73 1017.8
20260903150317 88 243 2.0 6.0 0.00 0.00 0.00 75 1017.8
20260903145829 87 255 3.0 7.0 0.00 0.00 0.00 76 1017.8
20260903145318 87 212 3.0 6.0 0.00 0.00 0.00 75 1017.7
20260903144815 87 257 2.0 6.0 0.00 0.00 0.00 76 1017.7
20260903144328 87 233 4.0 7.0 0.00 0.00 0.00 75 1017.7
20260903143842 86 218 4.0 7.0 0.00 0.00 0.00 75 1017.8
20260903143313 86 193 4.0 6.0 0.00 0.00 0.00 77 1017.8
20260903142826 86 282 4.0 6.0 0.00 0.00 0.00 76 1017.8
20260903142319 86 255 4.0 7.0 0.00 0.00 0.00 76 1017.7
20260903141812 85 249 4.0 8.0 0.00 0.00 0.00 77 1017.8
20260903141345 85 283 4.0 8.0 0.00 0.00 0.00 78 1017.8
20260903140816 85 259 3.0 5.0 0.00 0.00 0.00 77 1017.8
20260903140313 85 268 2.0 7.0 0.00 0.00 0.00 80 1017.9
20260903135826 84 282 4.0 7.0 0.00 0.00 0.00 77 1017.9
20260903135319 84 270 4.0 5.0 0.00 0.00 0.00 78 1017.9
20260903134812 84 248 4.0 6.0 0.00 0.00 0.00 80 1017.9
20260903134325 83 240 4.0 6.0 0.00 0.00 0.00 80 1017.9
20260903133817 83 270 2.0 5.0 0.00 0.00 0.00 81 1017.9
20260903133311 83 220 1.0 5.0 0.00 0.00 0.00 82 1017.9
20260903132823 82 245 0.0 1.0 0.00 0.00 0.00 86 1018.0
20260903132320 82 262 0.0 1.0 0.00 0.00 0.00 87 1018.1
20260903131813 82 241 0.0 1.0 0.00 0.00 0.00 88 1018.2
20260903131326 81 242 0.0 1.0 0.00 0.00 0.00 88 1018.2
20260903130839 80 200 0.0 1.0 0.00 0.00 0.00 90 1018.2
20260903130310 79 213 0.0 1.0 0.00 0.00 0.00 92 1018.2
20260903125824 79 219 0.0 1.0 0.00 0.00 0.00 92 1018.3
20260903125316 78 217 0.0 1.0 0.00 0.00 0.00 93 1018.2
20260903124829 77 216 0.0 1.0 0.00 0.00 0.00 93 1018.3
20260903124326 77 216 0.0 1.0 0.00 0.00 0.00 95 1018.3
20260903123819 76 209 0.0 1.0 0.00 0.00 0.00 97 1018.3
20260903123312 76 209 0.0 1.0 0.00 0.00 0.00 97 1018.3
20260903122825 75 209 0.0 1.0 0.00 0.00 0.00 97 1018.2
20260903122337 75 209 0.0 0.0 0.00 0.00 0.00 97 1018.3
20260903121849 74 209 0.0 0.0 0.00 0.00 0.00 97 1018.2
20260903121321 74 209 0.0 0.0 0.00 0.00 0.00 97 1018.2
20260903120813 74 208 0.0 0.0 0.00 0.00 0.00 97 1018.2
20260903120327 73 209 0.0 0.0 0.00 0.00 0.00 97 1018.2
20260903115840 73 209 0.0 0.0 0.00 0.00 0.00 97 1018.2
20260903115316 72 209 0.0 0.0 0.00 0.00 0.00 97 1018.2
20260903114828 72 209 0.0 0.0 0.00 0.00 0.00 97 1018.2
20260903114321 71 209 0.0 0.0 0.00 0.00 0.00 97 1018.2
20260903113814 70 208 0.0 0.0 0.00 0.00 0.00 97 1018.1
20260903113326 70 209 0.0 0.0 0.00 0.00 0.00 97 1018.0
20260903112819 69 208 0.0 0.0 0.00 0.00 0.00 97 1018.0
20260903112312 69 209 0.0 0.0 0.00 0.00 0.00 97 1017.9
20260903111825 70 209 0.0 0.0 0.00 0.00 0.00 97 1017.9
20260903111322 69 209 0.0 0.0 0.00 0.00 0.00 97 1017.7
20260903110835 69 209 0.0 0.0 0.00 0.00 0.00 97 1017.7
20260903110326 69 209 0.0 0.0 0.00 0.00 0.00 97 1017.7
20260903105839 69 208 0.0 0.0 0.00 0.00 0.00 97 1017.6
20260903105311 69 209 0.0 0.0 0.00 0.00 0.00 97 1017.5
20260903104824 69 209 0.0 0.0 0.00 0.00 0.00 97 1017.5
20260903104316 70 209 0.0 0.0 0.00 0.00 0.00 97 1017.4
20260903103829 70 209 0.0 0.0 0.00 0.00 0.00 97 1017.4
20260903103322 70 208 0.0 0.0 0.00 0.00 0.00 97 1017.4
20260903102819 70 208 0.0 0.0 0.00 0.00 0.00 97 1017.4
20260903102332 70 209 0.0 0.0 0.00 0.00 0.00 97 1017.4
20260903101824 70 208 0.0 0.0 0.00 0.00 0.00 97 1017.4
20260903101317 70 209 0.0 0.0 0.00 0.00 0.00 97 1017.4
20260903100830 70 209 0.0 0.0 0.00 0.00 0.00 97 1017.4
20260903100342 70 209 0.0 0.0 0.00 0.00 0.00 97 1017.4
20260903095814 70 209 0.0 0.0 0.00 0.00 0.00 97 1017.4
20260903095327 70 208 0.0 0.0 0.00 0.00 0.00 97 1017.4
20260903094819 70 208 0.0 0.0 0.00 0.00 0.00 97 1017.2
20260903094315 70 209 0.0 0.0 0.00 0.00 0.00 97 1017.3
20260903093828 70 208 0.0 0.0 0.00 0.00 0.00 97 1017.3
20260903093321 70 209 0.0 0.0 0.00 0.00 0.00 97 1017.3
20260903092814 70 209 0.0 0.0 0.00 0.00 0.00 97 1017.3
20260903092347 70 209 0.0 0.0 0.00 0.00 0.00 97 1017.3
20260903091819 70 209 0.0 0.0 0.00 0.00 0.00 97 1017.2
20260903091329 70 209 0.0 0.0 0.00 0.00 0.00 97 1017.3
20260903090323 71 209 0.0 0.0 0.00 0.00 0.00 97 1017.3
20260903085815 71 209 0.0 0.0 0.00 0.00 0.00 97 1017.3
20260903085313 71 208 0.0 0.0 0.00 0.00 0.00 97 1017.2
20260903084825 71 209 0.0 0.0 0.00 0.00 0.00 97 1017.2
20260903084338 70 209 0.0 0.0 0.00 0.00 0.00 97 1017.2
20260903083850 70 209 0.0 0.0 0.00 0.00 0.00 97 1017.2
20260903083342 71 208 0.0 0.0 0.00 0.00 0.00 97 1017.2
20260903082813 71 209 0.0 0.0 0.00 0.00 0.00 97 1017.2
20260903082326 71 209 0.0 0.0 0.00 0.00 0.00 97 1017.2
20260903081819 71 208 0.0 0.0 0.00 0.00 0.00 97 1017.3
20260903081312 71 209 0.0 0.0 0.00 0.00 0.00 97 1017.3
20260903080825 71 209 0.0 0.0 0.00 0.00 0.00 97 1017.2
20260903080322 71 209 0.0 0.0 0.00 0.00 0.00 97 1017.3
20260903075835 71 208 0.0 0.0 0.00 0.00 0.00 97 1017.2
20260903075326 71 208 0.0 0.0 0.00 0.00 0.00 97 1017.2
20260903074819 71 209 0.0 0.0 0.00 0.00 0.00 97 1017.2
20260903074313 71 208 0.0 0.0 0.00 0.00 0.00 97 1017.2
20260903073825 72 208 0.0 0.0 0.00 0.00 0.00 97 1017.1
20260903073318 71 209 0.0 0.0 0.00 0.00 0.00 97 1017.1
20260903072850 72 209 0.0 0.0 0.00 0.00 0.00 97 1017.0
20260903072322 72 208 0.0 0.0 0.00 0.00 0.00 97 1017.0
20260903071818 72 208 0.0 0.0 0.00 0.00 0.00 97 1017.0
20260903071311 72 209 0.0 0.0 0.00 0.00 0.00 97 1017.0
20260903070823 72 209 0.0 0.0 0.00 0.00 0.00 97 1017.0
20260903070316 72 209 0.0 0.0 0.00 0.00 0.00 97 1017.0
20260903065829 72 208 0.0 0.0 0.00 0.00 0.00 97 1017.0
20260903065322 72 208 0.0 0.0 0.00 0.00 0.00 97 1016.9
20260903064815 72 209 0.0 0.0 0.00 0.00 0.00 97 1017.0
20260903064311 72 209 0.0 0.0 0.00 0.00 0.00 97 1017.0
20260903063824 72 208 0.0 0.0 0.00 0.00 0.00 96 1017.0
20260903063317 72 209 0.0 0.0 0.00 0.00 0.00 96 1017.0
20260903062810 72 209 0.0 0.0 0.00 0.00 0.00 97 1017.0
20260903062323 73 208 0.0 0.0 0.00 0.00 0.00 97 1017.0
20260903061816 73 209 0.0 0.0 0.00 0.00 0.00 96 1017.0
20260903061329 73 209 0.0 0.0 0.00 0.00 0.00 96 1017.1
20260903060841 73 209 0.0 0.0 0.00 0.00 0.00 96 1017.1
20260903060313 73 209 0.0 0.0 0.00 0.00 0.00 96 1017.0
20260903055810 73 209 0.0 0.0 0.00 0.00 0.00 96 1017.1
20260903055323 73 209 0.0 0.0 0.00 0.00 0.00 96 1017.1
20260903054816 73 209 0.0 0.0 0.00 0.00 0.00 97 1017.0
20260903054329 73 209 0.0 0.0 0.00 0.00 0.00 97 1017.0
20260903053822 73 208 0.0 0.0 0.00 0.00 0.00 97 1017.0
20260903053314 73 209 0.0 0.0 0.00 0.00 0.00 97 1017.1
20260903052827 73 208 0.0 0.0 0.00 0.00 0.00 97 1017.0
20260903052320 73 209 0.0 0.0 0.00 0.00 0.00 97 1017.0
20260903051817 73 209 0.0 0.0 0.00 0.00 0.00 97 1016.9
20260903051310 73 209 0.0 0.0 0.00 0.00 0.00 97 1016.9
20260903050823 73 209 0.0 0.0 0.00 0.00 0.00 97 1016.9
20260903050315 73 209 0.0 0.0 0.00 0.00 0.00 97 1016.9
20260903045828 73 208 0.0 0.0 0.00 0.00 0.00 97 1016.8
20260903045321 73 208 0.0 0.0 0.00 0.00 0.00 97 1016.8
20260903044814 73 209 0.0 0.0 0.00 0.00 0.00 97 1016.8
20260903044311 73 208 0.0 0.0 0.00 0.00 0.00 97 1016.7